This is the latest recevied weather packets stored in our database for station/object K2RMB. If no packets are shown the sender has not sent any weather packets the latest 10 day(s).
| Time | Temp. | Humidity | Pressure | Rain* | Wind** | Luminosity | Snow |
|---|---|---|---|---|---|---|---|
| 1777641708 | 7.78° C | 62% | 1012.1 hPa | 0 mm | - | 559 W/m² | - |
| 1777641403 | 7.22° C | 64% | 1012.1 hPa | 0 mm | - | 96 W/m² | - |
| 1777641098 | 6.67° C | 66% | 1012.1 hPa | 0 mm | - | 455 W/m² | - |
| 1777640795 | 6.67° C | 68% | 1012.5 hPa | 0 mm | - | 479 W/m² | - |
| 1777640492 | 6.67° C | 67% | 1012.5 hPa | 0 mm | - | 372 W/m² | - |
| 1777640189 | 6.67° C | 69% | 1012.5 hPa | 0 mm | - | 174 W/m² | - |
| 1777639885 | 6.67° C | 72% | 1012.5 hPa | 0 mm | - | 371 W/m² | - |
| 1777639583 | 6.11° C | 71% | 1012.5 hPa | 0 mm | - | 119 W/m² | - |
| 1777639280 | 6.11° C | 74% | 1012.5 hPa | 0 mm | - | 74 W/m² | - |
| 1777638976 | 5.56° C | 75% | 1012.5 hPa | 0 mm | - | 60 W/m² | - |
| 1777638671 | 5.56° C | 76% | 1012.5 hPa | 0 mm | - | 107 W/m² | - |
| 1777638368 | 5.56° C | 75% | 1012.1 hPa | 0 mm | - | 79 W/m² | - |
| 1777638064 | 5.56° C | 77% | 1012.1 hPa | 0 mm | - | 95 W/m² | - |
| 1777637761 | 5.56° C | 78% | 1012.5 hPa | 0 mm | - | 91 W/m² | - |
| 1777637457 | 5.56° C | 78% | 1012.5 hPa | 0 mm | - | 109 W/m² | - |
| 1777637155 | 5.56° C | 78% | 1012.1 hPa | 0 mm | - | 70 W/m² | - |
| 1777636851 | 6.11° C | 77% | 1012.1 hPa | 0 mm | - | 174 W/m² | - |
| 1777636547 | 6.11° C | 76% | 1011.8 hPa | 0 mm | - | 275 W/m² | - |
| 1777636243 | 6.11° C | 76% | 1011.8 hPa | 0 mm | - | 286 W/m² | - |
| 1777635943 | 6.11° C | 78% | 1011.8 hPa | 0 mm | - | 261 W/m² | - |
| 1777635639 | 5.56° C | 78% | 1011.8 hPa | 0 mm | - | 213 W/m² | - |
| 1777635336 | 5.56° C | 79% | 1011.8 hPa | 0 mm | - | 142 W/m² | - |
| 1777635033 | 5.56° C | 81% | 1011.8 hPa | 0 mm | - | 206 W/m² | - |
| 1777634729 | 5.56° C | 81% | 1012.1 hPa | 0 mm | - | 136 W/m² | - |
| 1777634427 | 5.56° C | 82% | 1011.8 hPa | 0 mm | - | 91 W/m² | - |
* Rain latest hour (hover to see other rain measurements)
** Current wind speed in m/s (hover to see current wind gust speed)